Weather History for Menomonie, WI

Change the Weather History Date:

Saturday, August 17, 2013

  Actual Average (KEAU) Record (KEAU)
Temperature  
Mean Temperature 67 °F 70 °F  
Max Temperature 83 °F 80 °F 101 °F (1947)
Min Temperature 51 °F 59 °F 41 °F (1963)
Degree Days  
Heating Degree Days 0 1  
Month to date heating degree days 12  
Since 1 June heating degree days 85  
Since 1 July heating degree days 23  
Cooling Degree Days 2 5  
Month to date cooling degree days 99  
Year to date cooling degree days 465  
Since 1 June cooling degree days 433  
Growing Degree Days 17 (Base 50)    
Moisture  
Dew Point 52 °F    
Average Humidity 63    
Maximum Humidity 99    
Minimum Humidity 29    
Precipitation  
Precipitation 0.00 in 0.15 in 1.88 in (1933)
Month to date precipitation 2.55  
Year to date precipitation 20.20  
Snow  
Snow 0.00 in 0.00 in 0.00 in ()
Month to date snowfall 0.0  
Since 1 June snowfall 0.0  
Since 1 July snowfall 0.0  
Snow Depth -    
Sea Level Pressure  
Sea Level Pressure 30.19 in    
Wind  
Wind Speed 3 mph (South)    
Max Wind Speed 16 mph    
Max Gust Speed 20 mph    
Visibility 9 miles    
Events Fog    
T = Trace of Precipitation, MM = Missing Value Source: NWS Daily Summary

Daily Weather History Graph

Daily Weather History Graph

Search for Another Location

Airport:

Trip Planner

Search our weather history database for the weather conditions in past years. The results will help you decide how hot, cold, wet, or windy it might be!

Date:

Astronomy

Aug. 17, 2013 Rise Set
Actual Time 6:12 AM CDT 8:09 PM CDT
Civil Twilight 5:40 AM CDT 8:41 PM CDT
Nautical Twilight 5:01 AM CDT 9:20 PM CDT
Astronomical Twilight 4:18 AM CDT 10:02 PM CDT
Moon 5:30 PM CDT (8/17) 2:10 AM CDT (8/17)
Length of Visible Light 15h 01m
Length of Day
13h 57m
Waxing Gibbous, 84% of the Moon is Illuminated
Aug 17
Waxing Gibbous
Aug 20
Full
Aug 28
Last Quarter
Sep 5
New
Sep 12
First Quarter

Hourly Weather History & Observations

Time (CDT) Temp. Dew Point Humidity Pressure Visibility Wind Dir Wind Speed Gust Speed Precip Events Conditions
12:15 AM 59.0 °F 54.9 °F 86% 30.20 in 10.0 mi Calm Calm - N/A   Clear
12:35 AM 58.5 °F 55.4 °F 90% 30.20 in 10.0 mi Calm Calm - N/A   Clear
12:55 AM 58.5 °F 55.6 °F 90% 30.20 in 10.0 mi Calm Calm - N/A   Clear
1:15 AM 58.1 °F 55.6 °F 91% 30.20 in 10.0 mi Calm Calm - N/A   Clear
1:35 AM 57.4 °F 54.7 °F 91% 30.20 in 10.0 mi Calm Calm - N/A   Clear
1:55 AM 57.2 °F 54.5 °F 91% 30.20 in 10.0 mi Calm Calm - N/A   Clear
2:15 AM 55.9 °F 53.8 °F 92% 30.20 in 10.0 mi Calm Calm - N/A   Clear
2:35 AM 55.8 °F 53.2 °F 91% 30.20 in 10.0 mi Calm Calm - N/A   Clear
2:55 AM 54.9 °F 52.3 °F 91% 30.21 in 10.0 mi Calm Calm - N/A   Clear
3:15 AM 55.2 °F 53.2 °F 93% 30.21 in 10.0 mi Calm Calm - N/A   Clear
3:35 AM 54.1 °F 51.4 °F 91% 30.21 in 10.0 mi Calm Calm - N/A   Clear
3:55 AM 54.1 °F 52.2 °F 93% 30.21 in 10.0 mi Calm Calm - N/A   Clear
4:15 AM 53.6 °F 52.2 °F 95% 30.22 in 7.0 mi Calm Calm - N/A   Clear
4:35 AM 53.6 °F 52.2 °F 95% 30.22 in 10.0 mi Calm Calm - N/A   Clear
4:55 AM 52.2 °F 50.7 °F 95% 30.22 in 10.0 mi Calm Calm - N/A   Clear
5:15 AM 52.5 °F 51.3 °F 95% 30.23 in 5.0 mi Calm Calm - N/A   Clear
5:35 AM 51.4 °F 50.4 °F 96% 30.23 in 2.5 mi Calm Calm - N/A   Clear
5:55 AM 51.3 °F 50.2 °F 96% 30.23 in 1.2 mi Calm Calm - N/A   Mist
6:15 AM 51.1 °F 50.2 °F 97% 30.23 in 0.2 mi Calm Calm - N/A Fog Fog
6:35 AM 51.1 °F 50.2 °F 97% 30.23 in 0.5 mi Calm Calm - N/A Fog Fog
6:55 AM 51.4 °F 50.7 °F 97% 30.23 in 0.2 mi Calm Calm - N/A Fog Fog
7:15 AM 52.0 °F 51.4 °F 98% 30.24 in 0.2 mi Calm Calm - N/A Fog Fog
7:35 AM 53.6 °F 52.7 °F 97% 30.24 in 5.0 mi Calm Calm - N/A   Clear
7:55 AM 54.9 °F 54.5 °F 99% 30.24 in 10.0 mi Calm Calm - N/A   Clear
8:15 AM 57.0 °F 56.5 °F 98% 30.24 in 10.0 mi Calm Calm - N/A   Clear
8:35 AM 60.6 °F 57.9 °F 91% 30.24 in 10.0 mi Calm Calm - N/A   Clear
8:55 AM 63.7 °F 57.4 °F 80% 30.24 in 10.0 mi Calm Calm - N/A   Clear
9:15 AM 66.4 °F 57.6 °F 73% 30.23 in 10.0 mi Calm Calm - N/A   Clear
9:35 AM 70.0 °F 57.4 °F 64% 30.23 in 10.0 mi SE 3.5 mph - N/A   Clear
9:55 AM 72.1 °F 55.8 °F 56% 30.23 in 10.0 mi SSE 4.6 mph - N/A   Clear
10:15 AM 74.7 °F 54.0 °F 48% 30.23 in 10.0 mi South 4.6 mph - N/A   Clear
10:35 AM 76.1 °F 53.2 °F 45% 30.23 in 10.0 mi South 4.6 mph - N/A   Clear
10:55 AM 76.6 °F 52.5 °F 43% 30.23 in 10.0 mi South 5.8 mph - N/A   Clear
11:15 AM 77.4 °F 52.2 °F 41% 30.23 in 10.0 mi SSW 9.2 mph - N/A   Clear
11:35 AM 78.8 °F 51.4 °F 38% 30.23 in 10.0 mi SSW 8.1 mph - N/A   Clear
11:55 AM 79.5 °F 49.8 °F 35% 30.22 in 10.0 mi SSW 10.4 mph 17.3 mph N/A   Clear
12:15 PM 80.8 °F 48.9 °F 33% 30.22 in 10.0 mi SSW 13.8 mph - N/A   Clear
12:35 PM 81.0 °F 47.3 °F 31% 30.22 in 10.0 mi South 12.7 mph - N/A   Clear
12:55 PM 81.0 °F 47.1 °F 30% 30.21 in 10.0 mi SSW 8.1 mph 18.4 mph N/A   Scattered Clouds
1:15 PM 81.9 °F 46.2 °F 29% 30.20 in 10.0 mi South 13.8 mph - N/A   Scattered Clouds
1:35 PM 81.9 °F 47.3 °F 30% 30.20 in 10.0 mi SW 4.6 mph 18.4 mph N/A   Clear
1:55 PM 82.4 °F 48.0 °F 30% 30.19 in 10.0 mi South 8.1 mph - N/A   Clear
2:15 PM 80.4 °F 49.3 °F 34% 30.18 in 10.0 mi SW 11.5 mph - N/A   Scattered Clouds
2:35 PM 81.9 °F 47.1 °F 30% 30.18 in 10.0 mi South 10.4 mph 17.3 mph N/A   Mostly Cloudy
2:55 PM 82.0 °F 47.7 °F 30% 30.18 in 10.0 mi SSE 11.5 mph 18.4 mph N/A   Mostly Cloudy
3:15 PM 80.4 °F 48.6 °F 33% 30.17 in 10.0 mi SW 9.2 mph - N/A   Scattered Clouds
3:35 PM 81.1 °F 48.0 °F 31% 30.17 in 10.0 mi South 6.9 mph 18.4 mph N/A   Mostly Cloudy
3:55 PM 81.3 °F 47.5 °F 30% 30.17 in 10.0 mi South 8.1 mph 16.1 mph N/A   Scattered Clouds
4:15 PM 82.2 °F 48.0 °F 30% 30.17 in 10.0 mi South 8.1 mph - N/A   Mostly Cloudy
4:35 PM 82.9 °F 48.0 °F 29% 30.17 in 10.0 mi SSW 16.1 mph 19.6 mph N/A   Mostly Cloudy
4:55 PM 83.3 °F 48.0 °F 29% 30.16 in 10.0 mi SW 16.1 mph - N/A   Scattered Clouds
5:15 PM 82.0 °F 47.7 °F 30% 30.15 in 10.0 mi SSW 8.1 mph - N/A   Scattered Clouds
5:35 PM 81.7 °F 47.5 °F 30% 30.15 in 10.0 mi SSW 12.7 mph - N/A   Scattered Clouds
5:55 PM 81.5 °F 47.5 °F 30% 30.15 in 10.0 mi SSW 13.8 mph - N/A   Scattered Clouds
6:15 PM 81.1 °F 47.5 °F 31% 30.14 in 10.0 mi South 10.4 mph - N/A   Scattered Clouds
6:55 PM 79.7 °F 48.7 °F 34% 30.13 in 10.0 mi SSW 8.1 mph - N/A   Clear
7:15 PM 78.6 °F 49.1 °F 35% 30.13 in 10.0 mi SSW 5.8 mph - N/A   Clear
7:35 PM 77.2 °F 50.4 °F 39% 30.13 in 10.0 mi South 4.6 mph - N/A   Clear
7:55 PM 75.4 °F 51.1 °F 42% 30.13 in 10.0 mi South 4.6 mph - N/A   Clear
8:15 PM 73.2 °F 52.0 °F 47% 30.14 in 10.0 mi South 3.5 mph - N/A   Clear
8:35 PM 70.9 °F 52.7 °F 53% 30.14 in 10.0 mi SSE 4.6 mph - N/A   Clear
8:55 PM 68.0 °F 53.4 °F 60% 30.14 in 10.0 mi SSE 4.6 mph - N/A   Clear
9:15 PM 67.8 °F 54.1 °F 62% 30.15 in 10.0 mi South 3.5 mph - N/A   Clear
9:35 PM 68.7 °F 52.9 °F 57% 30.15 in 10.0 mi South 4.6 mph - N/A   Clear
9:55 PM 65.5 °F 52.9 °F 64% 30.15 in 10.0 mi SSE 3.5 mph - N/A   Clear
10:15 PM 63.9 °F 54.7 °F 72% 30.15 in 10.0 mi Calm Calm - N/A   Clear
10:35 PM 65.3 °F 55.0 °F 69% 30.15 in 10.0 mi Calm Calm - N/A   Clear
10:55 PM 63.7 °F 54.5 °F 72% 30.15 in 10.0 mi Calm Calm - N/A   Clear
11:15 PM 61.2 °F 54.5 °F 79% 30.16 in 10.0 mi East 4.6 mph - N/A   Clear
11:35 PM 60.3 °F 55.4 °F 84% 30.15 in 10.0 mi Calm Calm - N/A   Clear
11:55 PM 60.6 °F 55.2 °F 82% 30.16 in 10.0 mi East 3.5 mph - N/A   Clear